This is the latest recevied weather packets stored in our database for station/object WB0OCV. If no packets are shown the sender has not sent any weather packets the latest 10 day(s).
| Time | Temp. | Humidity | Pressure | Rain* | Wind** | Luminosity | Snow |
|---|---|---|---|---|---|---|---|
| 1777914487 | 18.33° C | 47% | 1013 hPa | 0 mm | - | 820 W/m² | - |
| 1777914184 | 17.78° C | 49% | 1013.3 hPa | 0 mm | - | 822 W/m² | - |
| 1777913880 | 17.78° C | 53% | 1013.3 hPa | 0 mm | - | 822 W/m² | - |
| 1777913576 | 18.33° C | 49% | 1013.3 hPa | 0 mm | - | 823 W/m² | - |
| 1777913272 | 17.78° C | 54% | 1013.3 hPa | 0 mm | - | 823 W/m² | - |
| 1777912970 | 17.22° C | 53% | 1013.4 hPa | 0 mm | - | 824 W/m² | - |
| 1777912666 | 16.67° C | 55% | 1013.5 hPa | 0 mm | - | 823 W/m² | - |
| 1777912362 | 16.67° C | 57% | 1013.5 hPa | 0 mm | - | 821 W/m² | - |
| 1777912058 | 16.67° C | 57% | 1013.6 hPa | 0 mm | - | 820 W/m² | - |
| 1777911754 | 16.67° C | 55% | 1013.5 hPa | 0 mm | - | 815 W/m² | - |
| 1777911451 | 17.22° C | 54% | 1013.4 hPa | 0 mm | - | 816 W/m² | - |
| 1777911148 | 16.67° C | 53% | 1013.7 hPa | 0 mm | - | 812 W/m² | - |
| 1777910846 | 17.22° C | 53% | 1013.6 hPa | 0 mm | - | 808 W/m² | - |
| 1777910542 | 17.22° C | 53% | 1013.6 hPa | 0 mm | - | 806 W/m² | - |
| 1777910239 | 17.78° C | 54% | 1013.6 hPa | 0 mm | - | 804 W/m² | - |
| 1777909936 | 17.22° C | 55% | 1013.8 hPa | 0 mm | - | 798 W/m² | - |
| 1777909633 | 17.22° C | 52% | 1013.7 hPa | 0 mm | - | 792 W/m² | - |
| 1777909331 | 17.22° C | 51% | 1013.6 hPa | 0 mm | - | 787 W/m² | - |
| 1777909028 | 17.22° C | 51% | 1013.9 hPa | 0 mm | - | 782 W/m² | - |
| 1777908725 | 17.22° C | 52% | 1013.9 hPa | 0 mm | - | 775 W/m² | - |
| 1777908422 | 17.22° C | 54% | 1013.8 hPa | 0 mm | - | 768 W/m² | - |
| 1777908119 | 16.11° C | 52% | 1014 hPa | 0 mm | - | 761 W/m² | - |
| 1777907815 | 16.67° C | 52% | 1014.1 hPa | 0 mm | - | 754 W/m² | - |
| 1777907516 | 16.67° C | 56% | 1013.8 hPa | 0 mm | - | 745 W/m² | - |
| 1777907213 | 16.67° C | 51% | 1014.1 hPa | 0 mm | - | 736 W/m² | - |
* Rain latest hour (hover to see other rain measurements)
** Current wind speed in m/s (hover to see current wind gust speed)